[[{"header":{"parameterUnit":"m.s-1","parameterCategory":1,"la1":30.2991,"la2":30.254,"lo1":-89.0895,"lo2":-89.0444,"dy":0.0017,"dx":0.0017,"nx":28,"ny":28,"refTime":"2024-12-03T09:00:00:Z","depth":0,"parameterNumber":2,"parameterNumberName":"U-component_of_WINDS"},"data":[0,0,0,0,0,0,0,0,0,0,0,0,0,0,0,0,0,0,0,0,0,0,0,0,0,0,0,0,0,0,0,0,0,0,0,0,0,0,0,0,0,0,0,0,0,0,0,0,0,0,0,0,0,0,0,0,0,0,2.854,2.854,0,2.8555,2.8555,2.8556,2.8507,2.8506,2.8504,2.8503,2.8518,2.852,2.8522,0,0,0,0,0,0,0,0,0,0,0,0,0,2.8466,2.8467,2.854,2.854,2.854,2.8555,2.8555,2.8556,2.8507,2.8505,2.8504,2.8502,2.8518,2.852,2.8522,0,0,0,0,0,0,0,0,0,0,0,0,0,2.8491,2.8468,2.854,2.8518,2.8516,2.8555,2.8555,2.8556,2.8508,2.8505,2.8503,2.8501,2.8517,2.852,2.8522,2.8583,0,0,2.853,2.8532,0,0,0,0,0,0,0,0,2.849,2.8494,2.8521,2.8519,2.8517,2.8527,2.8535,2.8565,2.8508,2.8511,2.8503,2.85,2.8523,2.8525,2.8533,2.8584,2.8585,2.8531,2.8532,2.8534,2.8534,0,0,0,0,0,0,0,2.8488,2.8493,2.8546,2.8521,2.8519,2.8506,2.8508,2.854,2.8529,2.851,2.8507,2.8509,2.8522,2.853,2.8533,2.8585,2.8531,2.8533,2.8535,2.8536,2.8683,2.8686,0,0,0,0,0,0,2.8489,2.8492,2.8545,2.8546,2.8498,2.851,2.8511,2.8526,2.8529,2.8527,2.8511,2.8507,2.8527,2.853,2.8533,2.8602,2.8533,2.8536,2.8538,2.8681,2.8684,2.8686,0,0,0,0,0,0,2.8488,2.8495,2.8545,2.8518,2.8523,2.8513,2.8531,2.8528,2.8536,2.8529,2.8527,2.8522,2.8525,2.8529,2.857,2.8602,2.8537,2.854,2.8678,2.8682,2.8685,2.8742,0,0,0,0,0,0,2.8486,2.8495,2.8518,2.8519,2.8525,2.8582,2.8533,2.8529,2.8541,2.8536,2.8539,2.8537,2.8524,2.8567,2.8573,2.8604,2.8542,2.8675,2.868,2.8684,2.8737,2.8747,2.8755,0,0,0,0,0,2.8484,2.8534,2.852,2.8526,2.8555,2.8584,2.8588,2.8571,2.8544,2.8567,2.8562,2.8537,2.8598,2.8571,2.8578,2.8611,2.8673,2.8679,2.8684,2.8733,2.8745,2.8755,0,0,0,0,0,0,2.8538,2.8534,2.8518,2.857,2.8578,2.8576,2.8605,2.8585,2.86,2.8594,2.8573,2.8574,2.8618,2.8619,2.8589,2.8668,2.8631,2.8638,2.8666,2.8677,2.8686,2.8684,2.8544,0,0,0,0,0,2.8556,2.8581,2.8576,2.8623,2.8627,2.8616,2.8628,2.8614,2.8621,2.8624,2.8622,2.863,2.865,2.8664,2.8683,2.8738,2.8736,2.8763,2.8772,2.878,2.8785,2.8811,2.8823,2.8703,2.8703,2.8703,0,0,2.8594,2.8595,2.8612,2.8634,2.8638,2.8663,2.8619,2.8648,2.8666,2.8629,2.8666,2.8665,2.8672,2.872,2.874,2.8721,2.8818,2.8786,2.8792,2.8794,2.8818,2.8829,2.8839,2.8707,2.8706,2.8706,0,0,2.8675,2.8679,2.8717,2.8721,2.8728,2.8719,2.8729,2.8729,2.8727,2.8765,2.8736,2.8757,2.8794,2.8799,2.8806,2.8886,2.8863,2.8893,2.894,2.8965,2.8975,2.8983,2.9009,2.9019,2.8899,2.8899,2.8899,0,2.8721,2.8757,2.8739,2.8769,2.8778,2.8745,2.8782,2.8788,2.8801,2.8807,2.8786,2.8829,2.8831,2.8878,2.8897,2.8905,2.8913,2.8892,2.8975,2.8983,2.899,2.9015,2.9025,2.8903,2.8902,2.8902,2.8902,0,2.8812,2.8838,2.8868,2.8879,2.8892,2.8926,2.8911,2.8926,2.8911,2.8904,2.8942,2.8943,2.896,2.8971,2.8957,2.9015,2.9002,2.8979,2.894,2.9005,2.9028,2.9037,2.8907,2.8906,2.8905,2.8904,0,0,2.8928,2.8927,2.8938,2.8941,2.8945,2.8965,2.8996,2.9012,2.9024,2.9034,2.9058,2.9089,2.9066,2.9074,2.906,2.9083,2.9143,2.9056,2.9056,2.907,2.9204,2.922,2.9231,2.9129,2.9131,2.9132,2.9202,0,2.9005,2.9058,2.9041,2.9094,2.9116,2.9084,2.9111,2.9116,2.911,2.9127,2.9121,2.9142,2.9112,2.9116,2.9138,2.9131,2.9169,2.9127,2.9149,2.915,2.9146,2.9244,2.9261,2.9328,2.9211,2.9213,2.9214,0,2.9102,2.9114,2.9169,2.9166,2.9175,2.9199,2.9211,2.9229,2.9233,2.9227,2.9235,2.9216,2.9245,2.9208,2.9247,2.9218,2.9226,2.9225,2.9227,2.9226,2.9185,2.9244,2.9349,2.9358,2.9228,2.9227,2.9226,0,2.9177,2.9207,2.9243,2.9247,2.9246,2.9263,2.9264,2.9265,2.9275,2.9286,2.9291,2.9306,2.9313,2.9324,2.9309,2.9284,2.9349,2.9311,2.9343,2.9344,2.9357,2.9356,2.9463,2.9367,2.9367,2.9366,2.9366,0,2.9264,2.9298,2.9276,2.9298,2.9334,2.9314,2.9351,2.9348,2.9349,2.9369,2.9344,2.9363,2.9342,2.9359,2.9348,2.938,2.9384,2.9379,2.9375,2.938,2.938,2.9384,2.9378,2.9369,2.9368,2.9368,2.9368,0,2.9353,2.934,2.9377,2.9372,2.9371,2.9398,2.9394,2.9413,2.9405,2.943,2.9435,2.9423,2.9441,2.9427,2.9446,2.9438,2.948,2.9471,2.9478,2.9474,2.9506,2.9502,2.9617,2.963,2.9528,2.9529,2.953,0,2.9408,2.9433,2.943,2.9441,2.9443,2.9461,2.9471,2.9452,2.9462,2.9467,2.9486,2.9502,2.9513,2.9544,2.9537,2.955,2.9539,2.9579,2.9541,2.9544,2.9537,2.9534,2.9536,2.9586,2.9587,2.9588,2.9589,0,2.9506,2.9497,2.9512,2.9523,2.9534,2.9543,2.9549,2.956,2.954,2.9553,2.9571,2.958,2.9598,2.9613,2.9624,2.9624,2.9602,2.9601,2.9608,2.9612,2.9614,2.9611,2.9496,2.9598,2.9597,2.9596,2.9596,2.9595,2.9578,2.9597,2.9597,2.9613,2.9616,2.9621,2.9638,2.9632,2.9646,2.9659,2.9647,2.9668,2.9669,2.9681,2.9683,2.9699,2.9683,2.9695,2.9697,2.97,2.9703,2.9614,2.9701,2.9701,2.9701,2.9701,2.97,0,2.9671,2.9669,2.9684,2.9693,2.9705,2.9684,2.9689,2.97,2.9719,2.9722,2.9733,2.9752,2.9767,2.976,2.9773,2.9786,2.9777,2.979,2.9787,2.9787,2.9718,2.9709,2.9797,2.9797,2.9797,2.9797,2.9797,2.9797,2.9721,2.9752,2.9744,2.9775,2.9773,2.9792,2.9797,2.9801,2.9803,2.9826,2.9837,2.9832,2.9831,2.9843,2.9855,2.9852,2.9857,2.9873,2.9867,2.9802,2.9792,2.9783,2.9774,2.9875,2.9875,2.9934,2.9935,2.9935]},{"header":{"parameterUnit":"m.s-1","parameterCategory":1,"la1":30.2991,"la2":30.254,"lo1":-89.0895,"lo2":-89.0444,"dy":0.0017,"dx":0.0017,"nx":28,"ny":28,"refTime":"2024-12-03T09:00:00:Z","depth":0,"parameterNumber":3,"parameterNumberName":"V-component_of_WINDS"},"data":[0,0,0,0,0,0,0,0,0,0,0,0,0,0,0,0,0,0,0,0,0,0,0,0,0,0,0,0,0,0,0,0,0,0,0,0,0,0,0,0,0,0,0,0,0,0,0,0,0,0,0,0,0,0,0,0,0,0,5.7393,5.7395,0,5.7545,5.7547,5.7549,5.7513,5.751,5.7507,5.7505,5.7652,5.7659,5.7665,0,0,0,0,0,0,0,0,0,0,0,0,0,5.7063,5.7069,5.7393,5.7395,5.7397,5.7545,5.7547,5.7549,5.7514,5.751,5.7507,5.7503,5.765,5.7658,5.7666,0,0,0,0,0,0,0,0,0,0,0,0,0,5.7209,5.7071,5.7393,5.7397,5.7399,5.7545,5.7547,5.755,5.7514,5.751,5.7506,5.7502,5.7647,5.7657,5.7667,5.7815,0,0,5.7697,5.7701,0,0,0,0,0,0,0,0,5.7201,5.7221,5.7395,5.7397,5.74,5.7506,5.7485,5.7638,5.7515,5.747,5.7505,5.75,5.7606,5.7619,5.7657,5.7822,5.7828,5.7698,5.7704,5.7708,5.7711,0,0,0,0,0,0,0,5.7191,5.7215,5.7453,5.7397,5.74,5.7388,5.7405,5.7514,5.756,5.7474,5.7472,5.7491,5.7607,5.7648,5.766,5.783,5.7698,5.7707,5.7713,5.7717,5.812,5.8125,0,0,0,0,0,0,5.718,5.7206,5.7448,5.7458,5.7288,5.7398,5.7416,5.7476,5.7559,5.7568,5.7494,5.7488,5.7633,5.7649,5.7665,5.7843,5.7708,5.7718,5.7723,5.8115,5.8121,5.8126,0,0,0,0,0,0,5.7173,5.7202,5.7442,5.7332,5.7361,5.7408,5.7476,5.7481,5.7522,5.7575,5.7582,5.7528,5.763,5.7651,5.7778,5.7847,5.7722,5.7731,5.811,5.8117,5.8124,5.8199,0,0,0,0,0,0,5.7164,5.72,5.7259,5.7333,5.7367,5.7555,5.748,5.7487,5.7541,5.7534,5.7608,5.7616,5.7628,5.7763,5.7788,5.7859,5.7739,5.8104,5.8113,5.8121,5.8191,5.8208,5.8223,0,0,0,0,0,5.7152,5.7273,5.7262,5.7291,5.7443,5.7559,5.7578,5.7592,5.7546,5.7604,5.7638,5.7614,5.7836,5.7776,5.7804,5.7879,5.8099,5.811,5.8121,5.8183,5.8204,5.8222,0,0,0,0,0,0,5.7203,5.7283,5.7272,5.7421,5.7484,5.7553,5.7627,5.7614,5.769,5.7681,5.7692,5.7709,5.7837,5.787,5.7803,5.8025,5.796,5.7977,5.7999,5.8019,5.8035,5.8024,5.7747,0,0,0,0,0,5.7232,5.7323,5.7386,5.7511,5.7544,5.758,5.7631,5.7636,5.7701,5.7727,5.7769,5.7831,5.7913,5.7968,5.8048,5.8195,5.8209,5.8259,5.8276,5.8288,5.8303,5.838,5.8403,5.8161,5.8161,5.8161,0,0,5.7291,5.7346,5.7403,5.7523,5.7572,5.7663,5.7603,5.7702,5.7768,5.7741,5.7863,5.7896,5.7965,5.8102,5.8164,5.8133,5.8372,5.8302,5.8312,5.8319,5.8394,5.8417,5.8437,5.8169,5.8167,5.8166,0,0,5.7447,5.7499,5.7608,5.7659,5.7735,5.7759,5.7785,5.7856,5.7878,5.8001,5.7982,5.8059,5.8203,5.8252,5.8296,5.8468,5.8448,5.8493,5.8577,5.8653,5.8672,5.8689,5.8749,5.877,5.8507,5.8507,5.8508,0,5.7511,5.7651,5.7665,5.7766,5.7818,5.78,5.7908,5.7956,5.8053,5.8088,5.8053,5.8232,5.8277,5.8424,5.8466,5.8502,5.853,5.8485,5.8669,5.8686,5.8702,5.8758,5.8781,5.8512,5.8512,5.8511,5.8511,0,5.7724,5.7821,5.7899,5.7996,5.8057,5.8161,5.8188,5.8247,5.8247,5.8272,5.8396,5.8449,5.8539,5.8574,5.8573,5.872,5.8699,5.8666,5.8602,5.8729,5.8783,5.8805,5.8519,5.8518,5.8516,5.8515,0,0,5.7917,5.8021,5.8049,5.8092,5.8174,5.8247,5.8349,5.8438,5.8488,5.8554,5.8638,5.8759,5.8729,5.8779,5.8783,5.885,5.898,5.8809,5.881,5.8838,5.9143,5.9167,5.9192,5.8968,5.8972,5.8975,5.9137,0,5.8079,5.8263,5.8278,5.8441,5.8528,5.8511,5.8598,5.8656,5.8683,5.8758,5.8785,5.8871,5.8825,5.8855,5.892,5.8951,5.9042,5.8939,5.9043,5.9046,5.9026,5.9221,5.9246,5.9396,5.9158,5.9162,5.9164,0,5.8294,5.8369,5.8542,5.861,5.8647,5.8727,5.8809,5.8882,5.8946,5.896,5.9015,5.901,5.911,5.9042,5.918,5.911,5.9152,5.9173,5.9179,5.9189,5.9113,5.9234,5.9445,5.9467,5.9198,5.9195,5.9193,0,5.8416,5.856,5.8682,5.8719,5.8802,5.8858,5.8894,5.8954,5.9006,5.9076,5.911,5.919,5.9234,5.9295,5.931,5.9259,5.9446,5.938,5.9458,5.9457,5.9498,5.9495,5.9717,5.9527,5.9526,5.9526,5.9525,0,5.8595,5.8701,5.8738,5.8812,5.8929,5.8943,5.9058,5.909,5.9143,5.9221,5.921,5.9282,5.9298,5.9373,5.9385,5.9496,5.9516,5.9527,5.9529,5.9529,5.9527,5.9556,5.9546,5.9532,5.9531,5.9529,5.9528,0,5.8751,5.878,5.8911,5.8979,5.8998,5.9081,5.9138,5.9208,5.9232,5.933,5.9354,5.9391,5.9478,5.95,5.9603,5.9611,5.9741,5.9733,5.9721,5.972,5.9797,5.9789,6.0045,6.0079,5.9867,5.9869,5.987,0,5.8864,5.8945,5.9022,5.9074,5.9114,5.9199,5.9253,5.9268,5.9324,5.9402,5.9461,5.9548,5.9618,5.9758,5.9792,5.987,5.9863,5.9948,5.9875,5.9871,5.9863,5.9858,5.9865,5.9961,5.9964,5.9966,5.9967,0,5.9059,5.907,5.9149,5.9233,5.9298,5.9364,5.9427,5.947,5.9494,5.9556,5.9647,5.9701,5.9807,5.9892,5.9971,6.0004,5.9989,5.999,6.0012,6.0011,6.0,6.0006,5.9758,5.9984,5.9982,5.9981,5.998,5.9979,5.9196,5.9267,5.9332,5.942,5.9469,5.9528,5.9597,5.963,5.9707,5.9797,5.98,5.9898,5.9956,6.0061,6.0099,6.0173,6.0147,6.0179,6.0187,6.0195,6.0201,5.9989,6.0188,6.0187,6.0187,6.0186,6.0186,0,5.9391,5.9432,5.9512,5.9602,5.967,5.9652,5.972,5.9777,5.9865,5.9922,5.9992,6.0094,6.0176,6.0216,6.0296,6.0348,6.0343,6.0368,6.0364,6.0372,6.0221,6.0193,6.0371,6.0371,6.0371,6.0371,6.0371,6.0371,5.95,5.9618,5.9636,5.9777,5.9816,5.9914,5.9954,6.0007,6.0053,6.0169,6.0238,6.0264,6.0314,6.0397,6.047,6.0479,6.0509,6.0538,6.0543,6.0402,6.0383,6.0365,6.0339,6.0544,6.0545,6.0688,6.069,6.0691]}]]